Time,TemperatureF,DewpointF,PressureIn,WindDirection,WindDirectionDegrees,WindSpeedMPH,WindSpeedGustMPH,Humidity,HourlyPrecipIn,Conditions,Clouds,dailyrainin,SoftwareType,DateUTC
2013-10-03 00:14:00,65.0,63.0,30.06,SSE,151,0.0,0.0,94,0.00,,,0.00,,2013-10-03 04:14:00,
2013-10-03 00:24:00,64.0,63.0,30.06,SSE,151,0.0,0.0,95,0.00,,,0.00,,2013-10-03 04:24:00,
2013-10-03 00:44:00,63.0,61.0,30.06,SSE,151,0.0,0.0,94,0.00,,,0.00,,2013-10-03 04:44:00,
2013-10-03 00:53:00,63.0,61.0,30.05,SSE,151,0.0,0.0,94,0.00,,,0.00,,2013-10-03 04:53:00,
2013-10-03 01:13:00,63.0,62.0,30.06,SSE,151,0.0,0.0,95,0.00,,,0.00,,2013-10-03 05:13:00,
2013-10-03 01:23:00,63.0,62.0,30.05,SSE,151,0.0,0.0,96,0.00,,,0.00,,2013-10-03 05:23:00,
2013-10-03 01:43:00,64.0,63.0,30.05,SSE,151,0.0,0.0,95,0.00,,,0.00,,2013-10-03 05:43:00,
2013-10-03 01:52:00,64.0,63.0,30.05,SSE,151,0.0,0.0,96,0.00,,,0.00,,2013-10-03 05:52:00,
2013-10-03 02:12:00,64.0,63.0,30.05,SSE,151,0.0,0.0,95,0.00,,,0.00,,2013-10-03 06:12:00,
2013-10-03 02:22:00,63.0,62.0,30.05,SSE,151,0.0,0.0,96,0.00,,,0.00,,2013-10-03 06:22:00,
2013-10-03 02:42:00,63.0,62.0,30.04,SSE,151,0.0,0.0,96,0.00,,,0.00,,2013-10-03 06:42:00,
2013-10-03 02:52:00,63.0,62.0,30.04,SSE,151,0.0,0.0,96,0.00,,,0.00,,2013-10-03 06:52:00,
2013-10-03 03:11:00,63.0,62.0,30.03,SSE,151,0.0,0.0,96,0.00,,,0.00,,2013-10-03 07:11:00,
2013-10-03 03:22:00,63.0,62.0,30.03,SSE,151,0.0,0.0,95,0.00,,,0.00,,2013-10-03 07:22:00,
2013-10-03 03:42:00,61.0,60.0,30.03,SSE,151,0.0,0.0,96,0.00,,,0.00,,2013-10-03 07:42:00,
2013-10-03 03:52:00,62.0,61.0,30.03,SSE,151,0.0,0.0,96,0.00,,,0.00,,2013-10-03 07:52:00,
2013-10-03 04:12:00,61.0,60.0,30.04,SSE,151,0.0,0.0,96,0.00,,,0.00,,2013-10-03 08:12:00,
2013-10-03 04:22:00,61.0,60.0,30.04,SSE,151,0.0,0.0,96,0.00,,,0.00,,2013-10-03 08:22:00,
2013-10-03 04:42:00,60.0,59.0,30.04,SSE,151,0.0,0.0,96,0.00,,,0.00,,2013-10-03 08:42:00,
2013-10-03 04:52:00,61.0,60.0,30.04,SSE,151,0.0,0.0,96,0.00,,,0.00,,2013-10-03 08:52:00,
2013-10-03 05:12:00,62.0,61.0,30.04,SSE,151,0.0,0.0,96,0.00,,,0.00,,2013-10-03 09:12:00,
2013-10-03 05:22:00,62.0,61.0,30.04,SSE,151,0.0,0.0,96,0.00,,,0.00,,2013-10-03 09:22:00,
2013-10-03 05:43:00,63.0,62.0,30.04,SSE,150,0.0,0.0,96,0.06,,,0.06,,2013-10-03 09:43:00,
2013-10-03 05:53:00,63.0,62.0,30.04,SSE,150,0.0,0.0,96,0.06,,,0.06,,2013-10-03 09:53:00,
2013-10-03 06:13:00,64.0,63.0,30.04,SSE,150,0.0,0.0,96,0.06,,,0.06,,2013-10-03 10:13:00,
2013-10-03 06:23:00,64.0,63.0,30.03,SSE,150,0.0,0.0,96,0.06,,,0.06,,2013-10-03 10:23:00,
2013-10-03 06:43:00,64.0,63.0,30.02,SSE,150,0.0,0.0,96,0.00,,,0.06,,2013-10-03 10:43:00,
2013-10-03 06:52:00,63.0,62.0,30.03,SSE,162,0.0,1.0,96,0.00,,,0.06,,2013-10-03 10:52:00,
2013-10-03 07:12:00,63.0,62.0,30.03,SSE,162,0.0,0.0,96,0.00,,,0.06,,2013-10-03 11:12:00,
2013-10-03 07:23:00,64.0,63.0,30.04,SSE,162,0.0,0.0,96,0.00,,,0.06,,2013-10-03 11:23:00,
2013-10-03 07:42:00,64.0,63.0,30.04,SSE,162,0.0,1.0,96,0.00,,,0.06,,2013-10-03 11:42:00,
2013-10-03 07:52:00,65.0,64.0,30.03,SSE,160,0.0,1.0,96,0.00,,,0.06,,2013-10-03 11:52:00,
2013-10-03 08:12:00,65.0,64.0,30.03,SSE,148,0.0,1.0,96,0.00,,,0.06,,2013-10-03 12:12:00,
2013-10-03 08:22:00,65.0,64.0,30.03,SSE,147,0.0,1.0,96,0.00,,,0.06,,2013-10-03 12:22:00,
2013-10-03 08:42:00,65.0,64.0,30.03,SSE,155,0.0,1.0,96,0.00,,,0.06,,2013-10-03 12:42:00,
2013-10-03 08:52:00,65.0,64.0,30.03,SSE,157,0.0,1.0,96,0.00,,,0.06,,2013-10-03 12:52:00,
2013-10-03 09:11:00,66.0,65.0,30.04,SSW,200,1.0,2.0,96,0.00,,,0.06,,2013-10-03 13:11:00,
2013-10-03 09:22:00,66.0,65.0,30.05,SW,223,2.0,3.0,96,0.00,,,0.06,,2013-10-03 13:22:00,
2013-10-03 09:42:00,67.0,66.0,30.05,SE,145,0.0,3.0,96,0.00,,,0.06,,2013-10-03 13:42:00,
2013-10-03 09:52:00,67.0,66.0,30.05,SSE,156,1.0,3.0,96,0.00,,,0.06,,2013-10-03 13:52:00,
2013-10-03 10:11:00,67.0,66.0,30.04,SSW,209,0.0,2.0,96,0.00,,,0.06,,2013-10-03 14:11:00,
2013-10-03 10:22:00,68.0,67.0,30.04,SSW,207,2.0,4.0,95,0.00,,,0.06,,2013-10-03 14:22:00,
2013-10-03 10:42:00,68.0,67.0,30.04,WSW,240,1.0,5.0,95,0.00,,,0.06,,2013-10-03 14:42:00,
2013-10-03 10:52:00,68.0,67.0,30.04,SSW,207,3.0,6.0,95,0.00,,,0.06,,2013-10-03 14:52:00,
2013-10-03 11:11:00,68.0,67.0,30.04,SSW,195,3.0,5.0,95,0.03,,,0.09,,2013-10-03 15:11:00,
2013-10-03 11:22:00,68.0,67.0,30.04,SW,219,1.0,4.0,95,0.03,,,0.09,,2013-10-03 15:22:00,
2013-10-03 11:43:00,69.0,68.0,30.04,SW,215,2.0,4.0,95,0.03,,,0.09,,2013-10-03 15:43:00,
2013-10-03 11:54:00,70.0,68.0,30.05,SSW,205,3.0,6.0,93,0.03,,,0.09,,2013-10-03 15:54:00,
2013-10-03 12:13:00,70.0,68.0,30.05,WNW,288,2.0,6.0,93,0.00,,,0.09,,2013-10-03 16:13:00,
2013-10-03 12:23:00,71.0,69.0,30.04,SSW,209,2.0,6.0,93,0.00,,,0.09,,2013-10-03 16:23:00,
2013-10-03 12:42:00,72.0,68.0,30.04,SSW,205,5.0,8.0,88,0.00,,,0.09,,2013-10-03 16:42:00,
2013-10-03 12:53:00,73.0,69.0,30.03,SSW,212,3.0,11.0,87,0.00,,,0.09,,2013-10-03 16:53:00,
2013-10-03 13:12:00,72.0,68.0,30.04,West,262,2.0,5.0,87,0.00,,,0.09,,2013-10-03 17:12:00,
2013-10-03 13:22:00,74.0,69.0,30.04,SSW,200,4.0,8.0,84,0.00,,,0.09,,2013-10-03 17:22:00,
2013-10-03 13:42:00,75.0,69.0,30.03,SW,226,3.0,10.0,82,0.00,,,0.09,,2013-10-03 17:42:00,
2013-10-03 13:52:00,76.0,67.0,30.02,SSW,212,5.0,8.0,75,0.00,,,0.09,,2013-10-03 17:52:00,
2013-10-03 14:12:00,76.0,67.0,30.02,SSW,205,4.0,11.0,75,0.00,,,0.09,,2013-10-03 18:12:00,
2013-10-03 14:22:00,75.0,67.0,30.02,SSW,206,5.0,11.0,75,0.00,,,0.09,,2013-10-03 18:22:00,
2013-10-03 14:42:00,74.0,66.0,30.02,SW,218,2.0,7.0,77,0.00,,,0.09,,2013-10-03 18:42:00,
2013-10-03 14:52:00,75.0,67.0,30.01,SSW,213,3.0,9.0,77,0.00,,,0.09,,2013-10-03 18:52:00,
2013-10-03 15:11:00,74.0,67.0,30.01,WNW,284,1.0,6.0,78,0.00,,,0.09,,2013-10-03 19:11:00,
2013-10-03 15:22:00,74.0,68.0,30.00,WSW,245,1.0,6.0,81,0.01,,,0.10,,2013-10-03 19:22:00,
2013-10-03 15:42:00,73.0,68.0,30.00,SW,224,1.0,4.0,85,0.01,,,0.10,,2013-10-03 19:42:00,
2013-10-03 15:53:00,73.0,68.0,30.00,SW,233,2.0,4.0,85,0.01,,,0.10,,2013-10-03 19:53:00,
2013-10-03 16:12:00,74.0,69.0,29.99,SW,233,3.0,6.0,84,0.01,,,0.10,,2013-10-03 20:12:00,
2013-10-03 16:22:00,75.0,68.0,29.98,SSW,207,3.0,8.0,80,0.00,,,0.10,,2013-10-03 20:22:00,
2013-10-03 16:42:00,75.0,68.0,29.98,SW,224,3.0,8.0,80,0.00,,,0.10,,2013-10-03 20:42:00,
2013-10-03 16:52:00,77.0,69.0,29.98,SSW,195,3.0,7.0,77,0.00,,,0.10,,2013-10-03 20:52:00,
2013-10-03 17:12:00,78.0,68.0,29.97,SSW,207,4.0,7.0,72,0.00,,,0.10,,2013-10-03 21:12:00,
2013-10-03 17:22:00,79.0,67.0,29.96,SW,217,5.0,11.0,66,0.00,,,0.10,,2013-10-03 21:22:00,
2013-10-03 17:43:00,80.0,67.0,29.96,WSW,244,2.0,6.0,65,0.00,,,0.10,,2013-10-03 21:43:00,
2013-10-03 17:54:00,80.0,67.0,29.96,SSW,207,3.0,9.0,65,0.00,,,0.10,,2013-10-03 21:54:00,
2013-10-03 18:13:00,81.0,67.0,29.96,South,173,4.0,7.0,62,0.00,,,0.10,,2013-10-03 22:13:00,
2013-10-03 18:23:00,81.0,67.0,29.95,SSE,148,3.0,6.0,63,0.00,,,0.10,,2013-10-03 22:23:00,
2013-10-03 18:43:00,80.0,67.0,29.95,SW,226,3.0,7.0,64,0.00,,,0.10,,2013-10-03 22:43:00,
2013-10-03 18:54:00,80.0,68.0,29.95,SSW,205,1.0,6.0,66,0.00,,,0.10,,2013-10-03 22:54:00,
2013-10-03 19:12:00,77.0,66.0,29.94,SW,217,1.0,4.0,69,0.00,,,0.10,,2013-10-03 23:12:00,
2013-10-03 19:22:00,75.0,65.0,29.95,SSE,158,1.0,3.0,72,0.00,,,0.10,,2013-10-03 23:22:00,
2013-10-03 19:43:00,74.0,65.0,29.95,SSW,204,0.0,2.0,74,0.00,,,0.10,,2013-10-03 23:43:00,
2013-10-03 19:53:00,73.0,65.0,29.96,SW,219,0.0,1.0,77,0.00,,,0.10,,2013-10-03 23:53:00,
2013-10-03 20:12:00,73.0,66.0,29.96,SSE,159,0.0,1.0,79,0.00,,,0.10,,2013-10-04 00:12:00,
2013-10-03 20:22:00,72.0,66.0,29.97,SSE,159,0.0,0.0,81,0.00,,,0.10,,2013-10-04 00:22:00,
2013-10-03 20:42:00,70.0,65.0,29.97,SSE,158,0.0,0.0,84,0.00,,,0.10,,2013-10-04 00:42:00,
2013-10-03 20:52:00,69.0,65.0,29.98,SSE,158,0.0,0.0,86,0.00,,,0.10,,2013-10-04 00:52:00,
2013-10-03 21:12:00,68.0,64.0,29.98,SSE,158,0.0,0.0,87,0.00,,,0.10,,2013-10-04 01:12:00,
2013-10-03 21:22:00,69.0,65.0,29.99,SSE,159,0.0,1.0,87,0.00,,,0.10,,2013-10-04 01:22:00,
2013-10-03 21:42:00,70.0,62.0,30.03,WNW,286,8.0,14.0,75,0.00,,,0.10,,2013-10-04 01:42:00,
2013-10-03 21:52:00,66.0,61.0,30.03,NNW,346,3.0,9.0,85,0.12,,,0.22,,2013-10-04 01:52:00,
2013-10-03 22:12:00,65.0,63.0,30.01,SSE,165,1.0,9.0,92,0.37,,,0.47,,2013-10-04 02:12:00,
2013-10-03 22:22:00,65.0,63.0,30.01,NNE,18,0.0,1.0,94,0.39,,,0.49,,2013-10-04 02:22:00,
2013-10-03 22:43:00,65.0,64.0,30.01,NNE,18,0.0,0.0,95,0.40,,,0.50,,2013-10-04 02:43:00,
2013-10-03 22:52:00,65.0,64.0,30.00,SE,142,0.0,0.0,95,0.23,,,0.50,,2013-10-04 02:52:00,
2013-10-03 23:12:00,65.0,64.0,30.01,SSE,161,0.0,2.0,96,0.02,,,0.50,,2013-10-04 03:12:00,
2013-10-03 23:22:00,65.0,64.0,30.01,SSE,161,0.0,0.0,95,0.01,,,0.50,,2013-10-04 03:22:00,
2013-10-03 23:44:00,65.0,64.0,30.00,SSE,161,0.0,0.0,96,0.00,,,0.50,,2013-10-04 03:44:00,